DELTA 1 DEB, 42086

Orbit data source: Space-Track

DELTA 1 DEB, 42086 is space debris in LEO originally from a launch on Sun, 15 Dec 1968 UTC launched from the Air Force Western Test Range (AFWTR). Debris objects in space refer to the collection of defunct objects orbiting the Earth. Examples of debris include non-operational satellites, rocket bodies, and fragments generated from explosions, collisions, or faulty payload assembly.

Loading next visibility...
Identifier
42086, 1968-114N
Orbit
LEO
Last TLE update
8 months ago
Origin
Manufacturer
Aerojet
Mission
Spacecraft
Bus & Motor
Unknown
Mass
Unknown
Launch date (UTC)
1968-12-15 (57 years ago)
Launch vehicle
Unknown
Launch site
Air Force Western Test Range (AFWTR)
Object type
Payload
Rocket body
Debris
Shape & HBR
Unknown
Radar Cross Section
Small (<0.1 m²)

Expand to show TLE details & history

TLE from 8 months ago
0 DELTA 1 DEB
1 42086U 68114N   24319.19582241  .00000262  00000-0  34376-2 0  9996
2 42086 102.1159 281.4662 0349523 353.7041  16.6135 11.92868117143913
Epoch: 2024-11-14T04:41Z
TLE epoch observation values (Epoch: 2024-11-14T04:41:59.056Z)
Latitude
11.21248°
Longitude
154.76178°
Altitude
1,444.502 km
Speed
7.259 km/s
True Right ascension
18h 36m 09s
True Declination
11° 09' 10"
Sunlit
Object was in daylight at epoch
Visualization orbit readout
Latitude
77.83989°
Longitude
-90.6959°
Altitude
1,890.439 km
Speed
6.879 km/s
Apparent Right ascension
04h 40m 10s
Apparent Declination
32° 48' 01"
Sunlit
Object is in daylight
Visualization observer readout
Local Sidereal Time
17:29:05
Azimuth
10.697° NNE
Elevation
-16.408°
Doppler factor
1
Orbital elements
Apogee altitude
1,993.309 km
Perigee altitude
1,427.87 km
Semi-major axis
8,088.727 km
Eccentricity
0.03495
Inclination
102.1159°
RAAN
281.4662°
Arg. of periapsis
353.7041°
True anomaly
Unknown
Mean anomaly
16.6135°
Eccentric anomaly
Unknown
Mean motion
2.98348 °/min
Orbital period
120.66 mins
BSTAR
0.0034376
Loading maneuver chart data...
Loading SW <> Apogee altitude chart data...
Loading historical data...
Loading historical data...
Loading historical data...
Loading historical data...
Loading historical data...
Loading historical data...
Loading historical data...

DELTA 1 DEB Visibility forecast

Observer location: undefined°, undefined°

Span
Click to sort rows by Start time (UTC) header in descending order
Start Az.
Max El. time (UTC)
Max El. Az.
Max El.
End time (UTC)
End Az.
18 mins2025-07-02 07:57:28.236Z36.899° NE2025-07-02 08:06:28.236Z94.254° ESE26.973°2025-07-02 08:15:28.236Z151.872° SSE
19 mins2025-07-02 09:56:28.236Z13.017° NNE2025-07-02 10:05:28.236Z286.111° WNW43.802°2025-07-02 10:15:28.236Z211.49° SW
12 mins2025-07-02 11:56:28.236Z347.355° N2025-07-02 12:01:28.236Z315.077° NNW20.138°2025-07-02 12:08:28.236Z272.687° WNW
6 mins2025-07-02 17:38:28.236Z55.079° ENE2025-07-02 17:40:28.236Z41.642° NE13.4°2025-07-02 17:44:28.236Z16.125° NNE
16 mins2025-07-02 19:29:28.236Z133.886° SE2025-07-02 19:36:28.236Z67.301° ENE39.17°2025-07-02 19:45:28.236Z350.546° N
14 mins2025-07-02 21:29:28.236Z208.542° SW2025-07-02 21:35:28.236Z265.729° W30.199°2025-07-02 21:43:28.236Z326.043° NNW
|